Location: Newark
(49.3808°N, 3.1844°E)
Time: 01:33:12
(UTC+00:00)

Vanguard 1 Rocket - Pass Details

Date: 19 November 2019
Orbit: 650 x 4226 km, 34.3° (Epoch: 05 December)

Event Time Altitude Azimuth Distance (km) Brightness Sun altitude
Rises 06:36:22 0° 246° (WSW) 3,123 9.8 -4.8°
Reaches altitude 10° 06:39:21 10° 223° (SW) 2,426 9.4 -4.3°
Maximum altitude 06:42:43 16° 185° (S) 2,340 9.8 -3.8°
Drops below altitude 10° 06:47:04 10° 150° (SSE) 3,284 11.3 -3.2°
Sets 06:52:15 0° 132° (SE) 4,936 13.1 -2.5°
